Weather History for Atqasuk Edward Burnell Sr Mem, AK

Change the Weather History Date:

Saturday, January 18, 2014

  Actual Average (PABR) Record (PABR)
Temperature  
Mean Temperature -18 °F -14 °F  
Max Temperature -13 °F -8 °F 31 °F (1962)
Min Temperature -23 °F -20 °F -47 °F (1951)
Degree Days  
Heating Degree Days 83 79  
Month to date heating degree days 1402  
Since 1 July heating degree days 9609  
Cooling Degree Days 0    
Month to date cooling degree days  
Year to date cooling degree days  
Moisture  
Dew Point -22 °F    
Average Humidity 76    
Maximum Humidity 84    
Minimum Humidity 69    
Precipitation  
Precipitation 0.00 in 0.01 in 0.47 in (1962)
Month to date precipitation 0.08  
Year to date precipitation 0.08  
Snow  
Snow 0.00 in 0.00 in 4.70 in (1962)
Month to date snowfall 1.5  
Since 1 July snowfall 25.3  
Snow Depth -    
Sea Level Pressure  
Sea Level Pressure 29.71 in    
Wind  
Wind Speed 23 mph (ENE)    
Max Wind Speed 33 mph    
Max Gust Speed 39 mph    
Visibility 1 miles    
Events Snow    
T = Trace of Precipitation, MM = Missing Value Source: NWS Daily Summary

Daily Weather History Graph

Daily Weather History Graph

Search for Another Location

Airport:

Trip Planner

Search our weather history database for the weather conditions in past years. The results will help you decide how hot, cold, wet, or windy it might be!

Date:

Astronomy

Jan. 18, 2014 Rise Set
Actual Time 1:07 PM AKST 2:12 PM AKST
Civil Twilight 10:43 AM AKST 4:38 PM AKST
Nautical Twilight 9:11 AM AKST 6:10 PM AKST
Astronomical Twilight 7:55 AM AKST 7:26 PM AKST
Moon 8:29 PM AKST (1/18) 11:01 AM AKST (1/18)
Length of Visible Light 5h 54m
Length of Day
1h 04m
Waning Gibbous, 94% of the Moon is Illuminated
Jan 18
Waning Gibbous
Jan 23
Last Quarter
Jan 30
New
Feb 6
First Quarter
Feb 14
Full

Hourly Weather History & Observations

Time (AKST) Temp. Windchill Dew Point Humidity Pressure Visibility Wind Dir Wind Speed Gust Speed Precip Events Conditions
12:11 AM -23.8 °F -51.5 °F -31.0 °F 69% 29.92 in 1.0 mi ENE 17.3 mph 23.0 mph 0.00 in Snow Light Snow
12:56 AM -22.9 °F -51.8 °F -29.9 °F 70% 29.93 in 0.8 mi ENE 19.6 mph 28.8 mph 0.00 in Snow Light Snow
1:56 AM -22.0 °F -46.6 °F -28.8 °F 71% 29.89 in 0.8 mi ENE 13.8 mph 24.2 mph 0.00 in Snow Light Snow
2:28 AM -22.0 °F -43.6 °F -29.2 °F 69% 29.83 in 0.5 mi ENE 10.4 mph 20.7 mph 0.00 in Snow Snow
2:56 AM -22.0 °F -49.1 °F -27.4 °F 76% 29.81 in 0.5 mi ENE 17.3 mph 25.3 mph N/A Snow Snow
3:56 AM -20.9 °F -50.5 °F -27.9 °F 70% 29.81 in 0.2 mi ENE 21.9 mph 34.5 mph 0.00 in Snow Heavy Snow
4:12 AM -20.2 °F -51.8 °F -27.4 °F 69% 29.76 in 0.5 mi ENE 26.5 mph - 0.00 in Snow Snow
4:31 AM -20.2 °F -51.2 °F -27.4 °F 69% 29.77 in 0.2 mi ENE 25.3 mph 31.1 mph 0.00 in Snow Heavy Snow
4:38 AM -20.2 °F -52.3 °F -27.4 °F 69% 29.76 in 0.5 mi ENE 27.6 mph 33.4 mph 0.00 in Snow Snow
4:56 AM -19.8 °F -50.8 °F -26.9 °F 70% 29.79 in 0.5 mi ENE 25.3 mph 31.1 mph 0.00 in Snow Snow
5:30 AM -20.2 °F -50.7 °F -25.6 °F 76% 29.76 in 0.8 mi ENE 24.2 mph - 0.00 in Snow Light Snow
5:56 AM -20.2 °F -50.1 °F -25.6 °F 76% 29.74 in 0.8 mi ENE 23.0 mph - N/A Snow Light Snow
6:56 AM -17.9 °F -47.6 °F -24.9 °F 70% 29.73 in 0.8 mi ENE 24.2 mph 31.1 mph 0.00 in Snow Light Snow
7:13 AM -18.4 °F -47.7 °F -23.8 °F 76% 29.70 in 0.5 mi ENE 23.0 mph - 0.00 in Snow Snow
7:56 AM -17.9 °F -48.6 °F -24.0 °F 74% 29.71 in 0.5 mi ENE 26.5 mph - 0.00 in Snow Snow
8:22 AM -16.6 °F -47.4 °F -23.8 °F 70% 29.68 in 0.5 mi ENE 27.6 mph 33.4 mph 0.00 in Snow Snow
8:56 AM -16.6 °F -49.7 °F -23.8 °F 70% 29.65 in 0.5 mi ENE 33.4 mph 39.1 mph N/A Snow Snow
9:17 AM -16.6 °F -47.9 °F -22.0 °F 76% 29.65 in 0.8 mi ENE 28.8 mph - 0.00 in Snow Light Snow
9:56 AM -15.9 °F -47.4 °F -22.0 °F 74% 29.69 in 0.8 mi ENE 29.9 mph - 0.00 in Snow Light Snow
10:30 AM -16.6 °F -46.9 °F -20.2 °F 84% 29.67 in 0.8 mi ENE 26.5 mph 32.2 mph 0.00 in Snow Light Snow
10:56 AM -15.0 °F -44.3 °F -20.9 °F 75% 29.70 in 1.0 mi ENE 25.3 mph - 0.00 in Snow Light Snow
11:18 AM -14.8 °F -44.0 °F -20.2 °F 77% 29.68 in 0.8 mi ENE 25.3 mph - 0.00 in Snow Light Snow
11:25 AM -14.8 °F -45.0 °F -20.2 °F 77% 29.68 in 1.0 mi ENE 27.6 mph - 0.00 in Snow Light Snow
11:33 AM -14.8 °F -44.5 °F -20.2 °F 77% 29.67 in 0.8 mi ENE 26.5 mph - 0.00 in Snow Light Snow
11:56 AM -14.8 °F -44.5 °F -20.2 °F 77% 29.67 in 0.5 mi ENE 26.5 mph - N/A Snow Snow
12:20 PM -14.8 °F -44.5 °F -18.4 °F 84% 29.66 in 0.5 mi ENE 26.5 mph - 0.00 in Snow Snow
12:56 PM -13.9 °F -43.3 °F -18.9 °F 78% 29.68 in 0.5 mi ENE 26.5 mph - 0.00 in Snow Snow
1:11 PM -14.8 °F -45.0 °F -18.4 °F 84% 29.66 in 0.5 mi ENE 27.6 mph - 0.00 in Snow Snow
1:26 PM -14.8 °F -44.0 °F -18.4 °F 84% 29.66 in 0.8 mi ENE 25.3 mph - 0.00 in Snow Light Snow
1:37 PM -14.8 °F -44.0 °F -18.4 °F 84% 29.66 in 1.0 mi ENE 25.3 mph - 0.00 in Snow Light Snow
1:44 PM -14.8 °F -42.9 °F -20.2 °F 77% 29.66 in 0.8 mi ENE 23.0 mph - 0.00 in Snow Light Snow
1:56 PM -13.9 °F -41.7 °F -19.8 °F 75% 29.69 in 1.0 mi ENE 23.0 mph - 0.00 in Snow Light Snow
2:05 PM -14.8 °F -41.8 °F -20.2 °F 77% 29.67 in 1.5 mi ENE 20.7 mph - N/A   Haze
2:15 PM -14.8 °F -43.5 °F -20.2 °F 77% 29.67 in 1.2 mi ENE 24.2 mph 28.8 mph N/A   Haze
2:28 PM -14.8 °F -42.9 °F -20.2 °F 77% 29.67 in 1.5 mi ENE 23.0 mph - N/A   Haze
2:56 PM -14.8 °F -42.9 °F -20.2 °F 77% 29.67 in 1.2 mi ENE 23.0 mph - N/A   Haze
3:08 PM -14.8 °F -42.9 °F -20.2 °F 77% 29.67 in 1.5 mi ENE 23.0 mph - N/A   Haze
3:16 PM -14.8 °F -44.0 °F -18.4 °F 84% 29.66 in 1.0 mi ENE 25.3 mph - 0.00 in Snow Light Snow
3:27 PM -14.8 °F -44.0 °F -18.4 °F 84% 29.66 in 0.8 mi ENE 25.3 mph - 0.00 in Snow Light Snow
3:36 PM -14.8 °F -44.5 °F -18.4 °F 84% 29.66 in 1.0 mi ENE 26.5 mph - 0.00 in Snow Light Snow
3:56 PM -13.0 °F -42.1 °F -18.9 °F 75% 29.69 in 0.5 mi ENE 26.5 mph - 0.00 in Snow Snow
4:09 PM -13.0 °F -42.1 °F -18.4 °F 77% 29.66 in 0.8 mi ENE 26.5 mph - 0.00 in Snow Light Snow
4:17 PM -13.0 °F -42.1 °F -18.4 °F 77% 29.67 in 1.0 mi ENE 26.5 mph 32.2 mph 0.00 in Snow Light Snow
4:31 PM -13.0 °F -42.6 °F -18.4 °F 77% 29.66 in 1.2 mi ENE 27.6 mph - 0.00 in Snow Light Snow
4:56 PM -13.0 °F -40.6 °F -17.9 °F 79% 29.70 in 1.5 mi ENE 23.0 mph - 0.00 in Snow Light Snow
5:23 PM -13.0 °F -42.1 °F -18.4 °F 77% 29.67 in 2.0 mi ENE 26.5 mph - 0.00 in Snow Light Snow
5:56 PM -13.0 °F -41.6 °F -18.4 °F 77% 29.68 in 1.8 mi ENE 25.3 mph - N/A Snow Light Snow
6:04 PM -13.0 °F -41.6 °F -18.4 °F 77% 29.68 in 2.0 mi ENE 25.3 mph - 0.00 in Snow Light Snow
6:13 PM -13.0 °F -40.6 °F -18.4 °F 77% 29.68 in 1.5 mi ENE 23.0 mph - 0.00 in Snow Light Snow
6:29 PM -13.0 °F -41.1 °F -18.4 °F 77% 29.69 in 2.5 mi ENE 24.2 mph - 0.00 in Snow Light Snow
6:36 PM -13.0 °F -40.6 °F -18.4 °F 77% 29.69 in 3.0 mi ENE 23.0 mph - 0.00 in   Haze
6:46 PM -13.0 °F -41.1 °F -18.4 °F 77% 29.69 in 2.5 mi ENE 24.2 mph - 0.00 in Snow Light Snow
6:56 PM -13.9 °F -42.3 °F -18.9 °F 78% 29.72 in 2.0 mi ENE 24.2 mph - 0.00 in Snow Light Snow
7:17 PM -14.8 °F -42.9 °F -18.4 °F 84% 29.70 in 1.8 mi ENE 23.0 mph - 0.00 in   Haze
7:36 PM -14.8 °F -43.5 °F -18.4 °F 84% 29.70 in 2.5 mi ENE 24.2 mph - 0.00 in Snow Light Snow
7:56 PM -13.9 °F -41.7 °F -19.8 °F 75% 29.73 in 2.5 mi ENE 23.0 mph - 0.00 in   Haze
8:13 PM -14.8 °F -42.9 °F -20.2 °F 77% 29.70 in 3.0 mi ENE 23.0 mph - N/A   Haze
8:56 PM -17.0 °F -45.2 °F -22.9 °F 74% 29.73 in 5.0 mi ENE 21.9 mph - N/A   Haze
9:56 PM -17.0 °F -45.8 °F -22.9 °F 74% 29.75 in 5.0 mi ENE 23.0 mph - N/A   Haze
10:56 PM -15.9 °F -44.4 °F -22.0 °F 74% 29.78 in 3.0 mi ENE 23.0 mph - N/A   Haze
11:56 PM -16.6 °F -45.9 °F -22.0 °F 76% 29.76 in 2.5 mi ENE 24.2 mph - N/A   Haze